When you browse on this site, cookies collect data to enhance your experience and personalize the content and advertising you see.
Visit our Privacy Policy to learn more. By continuing to use the site, you agree to this use of cookies and data.
  • Em Portugal
  • Lista de países
  • Para 7 dias
  • Temperatura da água
  • Mapa do tempo
  • Widgets de tempo
  • user-avatar
    Iniciar Sessão

    Previsão horária em Sunny Beach

    Hoje, 14 Novembro, Quinta-feira

    Tempo Temperatura Precipitação Vento Pressão Humidade
    00:00 +18°C° 0 mm 1 m/s 733 mmHg 71%
    01:00 +16°C° 0 mm 1 m/s 733 mmHg 71%
    02:00 +16°C° 0 mm 1 m/s 732 mmHg 72%
    03:00 +16°C° 0 mm 1 m/s 732 mmHg 74%
    04:00 +15°C° 0 mm 1 m/s 732 mmHg 75%
    05:00 +15°C° 0 mm 1 m/s 732 mmHg 76%
    06:00 +15°C° 0 mm 1 m/s 732 mmHg 79%
    07:00 +15°C° 0 mm 1 m/s 732 mmHg 82%
    08:00 +15°C° 0 mm 2 m/s 732 mmHg 84%
    09:00 +16°C° 0 mm 2 m/s 732 mmHg 81%
    10:00 +17°C° 0 mm 2 m/s 732 mmHg 78%
    11:00 +18°C° 0 mm 2 m/s 732 mmHg 76%
    12:00 +18°C° 0 mm 2 m/s 732 mmHg 67%
    13:00 +19°C° 0 mm 2 m/s 732 mmHg 59%
    14:00 +20°C° 0 mm 2 m/s 732 mmHg 51%
    15:00 +19°C° 0 mm 2 m/s 732 mmHg 57%
    16:00 +18°C° 0 mm 2 m/s 732 mmHg 63%
    17:00 +17°C° 0 mm 2 m/s 731 mmHg 69%
    18:00 +16°C° 0.1 mm 2 m/s 732 mmHg 71%
    19:00 +16°C° 0.1 mm 2 m/s 732 mmHg 74%
    20:00 +16°C° 0.1 mm 2 m/s 732 mmHg 76%
    21:00 +14°C° 0 mm 3 m/s 733 mmHg 78%
    22:00 +14°C° 0 mm 3 m/s 733 mmHg 79%
    23:00 +14°C° 0 mm 4 m/s 733 mmHg 81%

    Amanhã, 15 Novembro, Sexta-feira

    Tempo Temperatura Precipitação Vento Pressão Humidade
    00:00 +14°C° 0 mm 3 m/s 733 mmHg 83%
    01:00 +13°C° 0 mm 3 m/s 733 mmHg 85%
    02:00 +13°C° 0 mm 3 m/s 734 mmHg 87%
    03:00 +12°C° 0 mm 3 m/s 734 mmHg 88%
    04:00 +12°C° 0 mm 3 m/s 734 mmHg 90%
    05:00 +13°C° 0 mm 2 m/s 734 mmHg 91%
    06:00 +13°C° 0 mm 2 m/s 735 mmHg 91%
    07:00 +13°C° 0 mm 2 m/s 735 mmHg 91%
    08:00 +13°C° 0 mm 2 m/s 736 mmHg 90%
    09:00 +15°C° 0 mm 2 m/s 736 mmHg 81%
    10:00 +17°C° 0 mm 2 m/s 736 mmHg 72%
    11:00 +18°C° 0 mm 3 m/s 737 mmHg 63%
    12:00 +19°C° 0 mm 3 m/s 737 mmHg 61%
    13:00 +19°C° 0 mm 3 m/s 737 mmHg 58%
    14:00 +20°C° 0 mm 3 m/s 737 mmHg 55%
    15:00 +19°C° 0 mm 2 m/s 737 mmHg 59%
    16:00 +18°C° 0 mm 2 m/s 737 mmHg 63%
    17:00 +17°C° 0 mm 2 m/s 737 mmHg 67%
    18:00 +16°C° 0 mm 1 m/s 738 mmHg 69%
    19:00 +15°C° 0 mm 1 m/s 738 mmHg 71%
    20:00 +15°C° 0 mm 1 m/s 738 mmHg 73%
    21:00 +14°C° 0 mm 1 m/s 739 mmHg 75%
    22:00 +14°C° 0 mm 1 m/s 739 mmHg 76%
    23:00 +14°C° 0 mm 1 m/s 739 mmHg 78%

    Depois de amanhã, 16 Novembro, Sábado

    Tempo Temperatura Precipitação Vento Pressão Humidade
    00:00 +13°C° 0 mm 1 m/s 739 mmHg 79%
    01:00 +13°C° 0 mm 1 m/s 739 mmHg 80%
    02:00 +13°C° 0 mm 1 m/s 739 mmHg 81%
    03:00 +13°C° 0 mm 1 m/s 739 mmHg 81%
    04:00 +13°C° 0 mm 1 m/s 739 mmHg 82%
    05:00 +12°C° 0 mm 1 m/s 739 mmHg 82%
    06:00 +13°C° 0 mm 1 m/s 740 mmHg 80%
    07:00 +13°C° 0 mm 1 m/s 740 mmHg 78%
    08:00 +13°C° 0 mm 1 m/s 740 mmHg 76%
    09:00 +15°C° 0 mm 1 m/s 740 mmHg 68%
    10:00 +18°C° 0 mm 1 m/s 741 mmHg 60%
    11:00 +20°C° 0 mm 1 m/s 741 mmHg 53%
    12:00 +20°C° 0 mm 2 m/s 741 mmHg 52%
    13:00 +20°C° 0 mm 2 m/s 740 mmHg 51%
    14:00 +20°C° 0 mm 3 m/s 740 mmHg 50%
    15:00 +19°C° 0 mm 3 m/s 740 mmHg 59%
    16:00 +17°C° 0 mm 3 m/s 740 mmHg 69%
    17:00 +16°C° 0 mm 3 m/s 740 mmHg 78%
    18:00 +15°C° 0 mm 2 m/s 740 mmHg 83%
    19:00 +14°C° 0 mm 2 m/s 740 mmHg 87%
    20:00 +13°C° 0 mm 2 m/s 740 mmHg 91%
    21:00 +13°C° 0 mm 2 m/s 740 mmHg 92%
    22:00 +13°C° 0 mm 1 m/s 740 mmHg 94%
    23:00 +13°C° 0 mm 1 m/s 740 mmHg 95%

    17 Novembro, Domingo

    Tempo Temperatura Precipitação Vento Pressão Humidade
    00:00 +13°C° 0 mm 1 m/s 740 mmHg 95%
    01:00 +13°C° 0 mm 2 m/s 740 mmHg 95%
    02:00 +13°C° 0 mm 2 m/s 739 mmHg 96%
    03:00 +13°C° 0 mm 2 m/s 739 mmHg 96%
    04:00 +13°C° 0 mm 2 m/s 739 mmHg 96%
    05:00 +13°C° 0 mm 2 m/s 739 mmHg 97%
    06:00 +13°C° 0 mm 2 m/s 739 mmHg 96%
    07:00 +13°C° 0 mm 2 m/s 739 mmHg 95%
    08:00 +13°C° 0 mm 2 m/s 739 mmHg 94%
    09:00 +14°C° 0 mm 3 m/s 739 mmHg 87%
    10:00 +16°C° 0 mm 3 m/s 739 mmHg 79%
    11:00 +17°C° 0 mm 3 m/s 739 mmHg 72%
    12:00 +17°C° 0 mm 3 m/s 739 mmHg 70%
    13:00 +18°C° 0 mm 3 m/s 739 mmHg 68%
    14:00 +18°C° 0 mm 3 m/s 738 mmHg 67%
    15:00 +17°C° 0 mm 3 m/s 738 mmHg 74%
    16:00 +16°C° 0 mm 2 m/s 738 mmHg 82%
    17:00 +15°C° 0 mm 2 m/s 738 mmHg 89%
    18:00 +14°C° 0 mm 2 m/s 738 mmHg 91%
    19:00 +14°C° 0 mm 2 m/s 738 mmHg 93%
    20:00 +13°C° 0 mm 1 m/s 738 mmHg 95%
    21:00 +13°C° 0 mm 1 m/s 738 mmHg 95%
    22:00 +13°C° 0 mm 1 m/s 738 mmHg 95%
    23:00 +13°C° 0 mm 1 m/s 738 mmHg 94%

    18 Novembro, Segunda-feira

    Tempo Temperatura Precipitação Vento Pressão Humidade
    00:00 +13°C° 0 mm 1 m/s 737 mmHg 93%
    01:00 +13°C° 0 mm 1 m/s 737 mmHg 92%
    02:00 +13°C° 0 mm 1 m/s 737 mmHg 92%
    03:00 +12°C° 0 mm 1 m/s 737 mmHg 91%
    04:00 +12°C° 0 mm 1 m/s 737 mmHg 90%
    05:00 +12°C° 0 mm 1 m/s 737 mmHg 89%
    06:00 +13°C° 0 mm 1 m/s 737 mmHg 87%
    07:00 +13°C° 0 mm 1 m/s 737 mmHg 85%
    08:00 +13°C° 0 mm 1 m/s 737 mmHg 83%
    09:00 +15°C° 0 mm 2 m/s 737 mmHg 74%
    10:00 +17°C° 0 mm 2 m/s 737 mmHg 65%
    11:00 +19°C° 0 mm 3 m/s 737 mmHg 57%
    12:00 +19°C° 0 mm 4 m/s 737 mmHg 56%
    13:00 +20°C° 0 mm 4 m/s 737 mmHg 55%
    14:00 +20°C° 0 mm 4 m/s 737 mmHg 54%
    15:00 +19°C° 0 mm 4 m/s 737 mmHg 59%
    16:00 +18°C° 0 mm 3 m/s 737 mmHg 64%
    17:00 +17°C° 0 mm 3 m/s 737 mmHg 68%
    18:00 +16°C° 0 mm 3 m/s 737 mmHg 72%
    19:00 +16°C° 0 mm 3 m/s 738 mmHg 76%
    20:00 +14°C° 0 mm 3 m/s 738 mmHg 80%
    21:00 +14°C° 0 mm 3 m/s 738 mmHg 83%
    22:00 +14°C° 0 mm 3 m/s 738 mmHg 85%
    23:00 +15°C° 0 mm 2 m/s 738 mmHg 88%

    19 Novembro, Terça-feira

    Tempo Temperatura Precipitação Vento Pressão Humidade
    00:00 +14°C° 0 mm 2 m/s 738 mmHg 90%
    01:00 +14°C° 0 mm 2 m/s 738 mmHg 91%
    02:00 +14°C° 0 mm 2 m/s 738 mmHg 92%
    03:00 +14°C° 0 mm 2 m/s 738 mmHg 93%
    04:00 +14°C° 0 mm 2 m/s 738 mmHg 93%
    05:00 +13°C° 0 mm 2 m/s 738 mmHg 93%
    06:00 +14°C° 0 mm 2 m/s 738 mmHg 91%
    07:00 +14°C° 0 mm 2 m/s 738 mmHg 90%
    08:00 +14°C° 0 mm 2 m/s 738 mmHg 88%
    09:00 +16°C° 0 mm 2 m/s 739 mmHg 80%
    10:00 +18°C° 0 mm 3 m/s 739 mmHg 72%
    11:00 +19°C° 0 mm 3 m/s 739 mmHg 63%
    12:00 +20°C° 0 mm 3 m/s 739 mmHg 60%
    13:00 +20°C° 0 mm 3 m/s 738 mmHg 57%
    14:00 +20°C° 0 mm 3 m/s 738 mmHg 54%
    15:00 +19°C° 0 mm 3 m/s 738 mmHg 59%
    16:00 +18°C° 0 mm 2 m/s 738 mmHg 65%
    17:00 +17°C° 0 mm 2 m/s 738 mmHg 70%
    18:00 +16°C° 0 mm 2 m/s 738 mmHg 74%
    19:00 +16°C° 0 mm 2 m/s 738 mmHg 77%
    20:00 +15°C° 0 mm 2 m/s 738 mmHg 81%
    21:00 +15°C° 0 mm 2 m/s 738 mmHg 82%
    22:00 +15°C° 0 mm 1 m/s 738 mmHg 84%
    23:00 +14°C° 0 mm 1 m/s 738 mmHg 85%
    Mostrar mais